Cincinnati, OH

1:17 PM EDT on April 26, 2017 (GMT -0400)
Cincinnati Municipal-Lunken

Weather History for KLUK - July, 2013

Change the Weather History Date:

Thursday, July 11, 2013

  Actual Average Record
Temperature  
Mean Temperature 74 °F -  
Max Temperature 82 °F 85 °F 96 °F (2011)
Min Temperature 64 °F 67 °F 51 °F (1963)
Cooling Degree Days 9    
Growing Degree Days 24 (Base 50)    
Moisture  
Dew Point 65 °F    
Average Humidity 83    
Maximum Humidity 100    
Minimum Humidity 56    
Precipitation  
Precipitation 0.00 in - - ()
Sea Level Pressure  
Sea Level Pressure 29.97 in    
Wind  
Wind Speed 2 mph (NE)    
Max Wind Speed 14 mph    
Max Gust Speed 16 mph    
Visibility 8 miles    
Events      
Averages and records for this station are not official NWS values.
T = Trace of Precipitation, MM = Missing Value Source: NWS Daily Summary

Daily Weather History Graph

Daily Weather History Graph

Search for Another Location

Airport or City:

Trip Planner

Search our weather history database for the weather conditions in past years. The results will help you decide how hot, cold, wet, or windy it might be!

Date:

Astronomy

Jul. 11, 2013 Rise Set
Actual Time 6:21 AM EDT 9:04 PM EDT
Civil Twilight 5:49 AM EDT 9:36 PM EDT
Nautical Twilight 5:10 AM EDT 10:15 PM EDT
Astronomical Twilight 4:25 AM EDT 11:00 PM EDT
Moon 9:37 AM EDT (7/11) 10:46 PM EDT (7/11)
Length of Visible Light 15h 46m
Length of Day
14h 43m
Waxing Crescent, 10% of the Moon is Illuminated
Jul 11
Waxing Crescent
Jul 15
First Quarter
Jul 22
Full
Jul 29
Last Quarter
Aug 6
New

Hourly Weather History & Observations

Time (EDT) Temp. Heat Index Dew Point Humidity Pressure Visibility Wind Dir Wind Speed Gust Speed Precip Events Conditions
12:53 AM 66.9 °F - 66.9 °F 100% 29.95 in 10.0 mi Calm Calm - N/A   Clear
1:53 AM 68.0 °F - 66.9 °F 96% 29.95 in 10.0 mi Calm Calm - N/A   Scattered Clouds
2:02 AM 68.0 °F - 66.2 °F 94% 29.96 in 10.0 mi Calm Calm - N/A   Mostly Cloudy
2:53 AM 69.1 °F - 68.0 °F 96% 29.94 in 10.0 mi Calm Calm - N/A   Overcast
3:10 AM 68.0 °F - 66.2 °F 94% 29.95 in 10.0 mi Calm Calm - N/A   Scattered Clouds
3:53 AM 66.9 °F - 66.0 °F 97% 29.94 in 7.0 mi Calm Calm - N/A   Clear
4:41 AM 66.2 °F - 66.2 °F 100% 29.95 in 2.0 mi Calm Calm - N/A   Clear
4:44 AM 66.2 °F - 66.2 °F 100% 29.95 in 3.0 mi Calm Calm - N/A   Partly Cloudy
4:53 AM 66.0 °F - 66.0 °F 100% 29.95 in 7.0 mi Calm Calm - N/A   Mostly Cloudy
5:03 AM 66.2 °F - 66.2 °F 100% 29.96 in 1.8 mi Calm Calm - N/A   Mostly Cloudy
5:12 AM 66.2 °F - 66.2 °F 100% 29.96 in 3.0 mi Calm Calm - N/A   Overcast
5:40 AM 68.0 °F - 68.0 °F 100% 29.96 in 7.0 mi Calm Calm - N/A   Overcast
5:53 AM 68.0 °F - 68.0 °F 100% 29.96 in 6.0 mi Calm Calm - N/A   Overcast
6:53 AM 69.1 °F - 68.0 °F 96% 29.97 in 8.0 mi Calm Calm - N/A   Overcast
7:53 AM 70.0 °F - 69.1 °F 97% 29.98 in 6.0 mi Calm Calm - N/A   Overcast
8:00 AM 69.8 °F - 68.0 °F 94% 29.99 in 6.0 mi Calm Calm - N/A   Overcast
8:53 AM 71.1 °F - 66.9 °F 87% 29.99 in 10.0 mi NNW 4.6 mph - N/A   Overcast
9:53 AM 72.0 °F - 66.0 °F 81% 29.99 in 10.0 mi NNW 4.6 mph - N/A   Mostly Cloudy
10:53 AM 75.0 °F - 68.0 °F 79% 29.99 in 10.0 mi East 4.6 mph - N/A   Mostly Cloudy
11:53 AM 77.0 °F - 66.9 °F 71% 29.99 in 10.0 mi NE 4.6 mph - N/A   Scattered Clouds
12:53 PM 80.1 °F 82.3 °F 66.9 °F 64% 29.99 in 10.0 mi East 4.6 mph - N/A   Mostly Cloudy
1:53 PM 79.0 °F - 64.9 °F 62% 29.99 in 10.0 mi NNE 6.9 mph - N/A   Overcast
2:53 PM 82.0 °F 83.8 °F 64.9 °F 56% 29.97 in 10.0 mi Variable 3.5 mph - N/A   Scattered Clouds
3:53 PM 81.0 °F 83.0 °F 66.0 °F 60% 29.96 in 10.0 mi NE 12.7 mph 16.1 mph N/A   Partly Cloudy
4:53 PM 79.0 °F - 62.1 °F 56% 29.96 in 10.0 mi NNE 12.7 mph - N/A   Mostly Cloudy
5:53 PM 79.0 °F - 64.0 °F 60% 29.97 in 10.0 mi North 10.4 mph - N/A   Mostly Cloudy
6:53 PM 75.9 °F - 62.1 °F 62% 29.99 in 10.0 mi NE 11.5 mph - N/A   Mostly Cloudy
7:53 PM 75.0 °F - 60.1 °F 60% 29.99 in 10.0 mi NE 13.8 mph - N/A   Scattered Clouds
8:53 PM 73.0 °F - 59.0 °F 61% 29.99 in 10.0 mi NNE 11.5 mph - N/A   Clear
9:53 PM 69.1 °F - 59.0 °F 70% 30.00 in 10.0 mi NE 4.6 mph - N/A   Clear
10:53 PM 66.0 °F - 60.1 °F 81% 30.02 in 10.0 mi East 3.5 mph - N/A   Clear
11:53 PM 64.0 °F - 61.0 °F 90% 30.03 in 10.0 mi Calm Calm - N/A   Clear